Regional Weather Roundup
Issued by NWS Sioux Falls, SD

Home | Current Version | Previous Version | Graphics & Text | Print | Product List | Glossary Off
Versions: 1 2 3 4 5 6 7 8 9 10 11 12 13 14 15 16 17 18 19 20 21 22 23 24 25 26 27 28 29 30 31 32 33 34 35 36 37 38 39 40 41 42 43 44 45 46 47 48 49 50

000
ASUS43 KFSD 190010
RWRFSD

WEATHER ROUNDUP FOR SE SOUTH DAKOTA/SW MINNESOTA/NW IOWA
NATIONAL WEATHER SERVICE SIOUX FALLS SD
600 PM CST THU JAN 18 2018

NOTE: "FAIR" INDICATES FEW OR NO CLOUDS BELOW 12,000 FEET WITH NO
SIGNIFICANT WEATHER AND OR OBSTRUCTIONS TO VISIBILITY.


SDZ038>040-050-052>070-190100-
SOUTHEAST SOUTH DAKOTA

CITY           SKY/WX    TMP DP  RH WIND       PRES   REMARKS
BROOKINGS      CLOUDY    33  28  81 S8        29.78F WCI  26
CHAMBERLAIN    CLOUDY    36  32  86 CALM      29.79S
6HR MIN TEMP:  36; 6HR MAX TEMP:  44;

HURON          CLOUDY    34  30  85 S7        29.78S WCI  28
6HR MIN TEMP:  33; 6HR MAX TEMP:  40;

MADISON        FAIR      32  32 100 SW9       29.79F WCI  24
MITCHELL       CLOUDY    37  31  78 S6        29.80F
6HR MIN TEMP:  33; 6HR MAX TEMP:  41;

SIOUX FALLS    CLOUDY    36  29  75 SW5       29.82F
6HR MIN TEMP:  34; 6HR MAX TEMP:  40;

WINNER         FAIR      44  31  60 SW10      29.80F
YANKTON        CLOUDY    38  27  64 CALM      29.84F
$$

MNZ071-072-080-081-089-090-097-098-190100-
SOUTHWEST MINNESOTA

CITY           SKY/WX    TMP DP  RH WIND       PRES   REMARKS
FAIRMONT       CLOUDY    35  28  75 SW7       29.84S WCI  29
JACKSON        CLOUDY    34  28  80 SW12      29.83S WCI  25
LUVERNE        CLOUDY    32  28  86 SW6       29.83F WCI  26
MARSHALL       CLOUDY    35  28  75 SW7       29.78F WCI  29
6HR MIN TEMP:  35; 6HR MAX TEMP:  41;

MONTEVIDEO     CLOUDY    37  28  70 W5        29.76S
PIPESTONE      CLOUDY    30  27  86 SW7       29.79F WCI  23
REDWOOD FALLS  CLOUDY    34  29  82 SW12      29.78S WCI  25
WINDOM         CLOUDY    36  19  51 SW12      29.80F
WORTHINGTON    CLOUDY    34  28  79 SW12      29.82S WCI  25
$$

IAZ001>003-012>014-020>022-031-032-NEZ013-014-SDZ071-190100-
NORTHWEST IOWA

CITY           SKY/WX    TMP DP  RH WIND       PRES   REMARKS
CHEROKEE       CLOUDY    34  25  70 S7        29.87R WCI  28
DENISON        CLOUDY    30  21  69 S10G17    29.91F WCI  21
ESTHERVILLE    CLOUDY    33  28  81 SW7       29.84R WCI  27
LE MARS        CLOUDY    36  27  69 S6        29.86S
ORANGE CITY    CLOUDY    36  28  75 SW6       29.85S
SHELDON        CLOUDY    34  28  80 S6        29.83F WCI  29
SIOUX CITY     CLOUDY    34  26  72 SE7       29.88R WCI  28
6HR MIN TEMP:  33; 6HR MAX TEMP:  44;

SPENCER        CLOUDY    34  26  72 SW9       29.86R WCI  27
6HR MIN TEMP:  34; 6HR MAX TEMP:  41;

STORM LAKE     CLOUDY    34  25  69 SW15      29.86R WCI  24
$$

ABBREVIATIONS USED IN REMARKS
   TC - TEMPERATURE IN CELSIUS
  WCI - WIND CHILL INDEX
   HX - HEAT INDEX
  VSB - VISIBILITY





USA.gov is the U.S. government's official web portal to all federal, state and local government web resources and services.